,,,PA_Meas_PMT16A,,PR_Meas_QMR101_102,,RH_Meas_QMH101,,SR_Meas_QMS101,,TA_Meas_QMH101,,GenWind,,GenWind,
date,time,status,PA,status,PR,status,RH,status,SR,status,TA,status,DirAvg,status,SpdAvg,
2010-12-18, 00:00:04,VALID,998.893,VALID,0,VALID,88.7401,VALID,0.112286,VALID,23.4653,VALID,101,VALID,0.137891,
2010-12-18, 00:01:04,VALID,998.891,VALID,0,VALID,88.6562,VALID,0,VALID,23.4671,VALID,101,VALID,0,
2010-12-18, 00:02:04,VALID,998.887,VALID,0,VALID,88.6257,VALID,0.112286,VALID,23.4458,VALID,101,VALID,0,
2010-12-18, 00:03:04,VALID,998.903,VALID,0,VALID,88.7935,VALID,0.112286,VALID,23.4263,VALID,101,VALID,0.383203,
2010-12-18, 00:04:04,VALID,998.879,VALID,0,VALID,89.0529,VALID,0,VALID,23.405,VALID,101,VALID,0.394922,
2010-12-18, 00:05:04,VALID,998.889,VALID,0,VALID,89.1063,VALID,0.112286,VALID,23.4263,VALID,101,VALID,0.508594,
2010-12-18, 00:06:04,VALID,998.862,VALID,0,VALID,89.1216,VALID,0,VALID,23.4458,VALID,101,VALID,0.614844,
2010-12-18, 00:07:04,VALID,998.874,VALID,0,VALID,88.9919,VALID,0.112286,VALID,23.4653,VALID,108,VALID,0.757031,
2010-12-18, 00:08:04,VALID,998.88,VALID,0,VALID,88.824,VALID,0,VALID,23.4653,VALID,110,VALID,0.723828,
2010-12-18, 00:09:04,VALID,998.879,VALID,0,VALID,88.6028,VALID,0,VALID,23.4848,VALID,110,VALID,0.573828,
2010-12-18, 00:10:04,VALID,998.863,VALID,0,VALID,88.5189,VALID,0,VALID,23.4866,VALID,110,VALID,0.354297,
2010-12-18, 00:11:04,VALID,998.804,VALID,0,VALID,88.3739,VALID,0,VALID,23.5043,VALID,110,VALID,0.5,
2010-12-18, 00:12:04,VALID,998.85,VALID,0,VALID,88.3205,VALID,0,VALID,23.4848,VALID,110,VALID,0.426172,
2010-12-18, 00:13:04,VALID,998.823,VALID,0,VALID,88.0687,VALID,0,VALID,23.4653,VALID,133,VALID,1.0125,
2010-12-18, 00:14:04,VALID,998.806,VALID,0,VALID,87.8322,VALID,0,VALID,23.4848,VALID,132,VALID,0.686328,
2010-12-18, 00:15:04,VALID,998.804,VALID,0,VALID,87.4812,VALID,0,VALID,23.4653,VALID,132,VALID,1.21758,
2010-12-18, 00:16:04,VALID,998.77,VALID,0,VALID,87.26,VALID,0,VALID,23.4458,VALID,130,VALID,1.2543,
2010-12-18, 00:17:04,VALID,998.782,VALID,0,VALID,87.26,VALID,0,VALID,23.4458,VALID,129,VALID,1.19844,
2010-12-18, 00:18:04,VALID,998.756,VALID,0,VALID,87.4354,VALID,0,VALID,23.4458,VALID,123,VALID,0.942187,
2010-12-18, 00:19:04,VALID,998.764,VALID,0,VALID,87.5194,VALID,0,VALID,23.4263,VALID,123,VALID,0.787109,
2010-12-18, 00:20:04,VALID,998.761,VALID,0,VALID,87.733,VALID,0,VALID,23.3872,VALID,123,VALID,0.621484,
2010-12-18, 00:21:04,VALID,998.722,VALID,0,VALID,88.0306,VALID,0,VALID,23.3872,VALID,123,VALID,0.6625,
2010-12-18, 00:22:04,VALID,998.699,VALID,0,VALID,88.145,VALID,0,VALID,23.3482,VALID,119,VALID,0.807813,
2010-12-18, 00:23:04,VALID,998.678,VALID,0,VALID,88.206,VALID,0,VALID,23.3695,VALID,117,VALID,0.623828,
2010-12-18, 00:24:04,VALID,998.643,VALID,0,VALID,88.3129,VALID,0,VALID,23.3305,VALID,117,VALID,0.458984,
2010-12-18, 00:25:04,VALID,998.619,VALID,0,VALID,88.3205,VALID,0,VALID,23.311,VALID,117,VALID,0.352734,
2010-12-18, 00:26:04,VALID,998.597,VALID,0,VALID,88.3815,VALID,0,VALID,23.2719,VALID,117,VALID,0.333984,
2010-12-18, 00:27:04,VALID,998.571,VALID,0,VALID,88.5494,VALID,0,VALID,23.2932,VALID,117,VALID,0.414844,
2010-12-18, 00:28:04,VALID,998.545,VALID,0,VALID,88.6943,VALID,0,VALID,23.2737,VALID,117,VALID,0.471875,
2010-12-18, 00:29:04,VALID,998.519,VALID,0,VALID,88.8546,VALID,0,VALID,23.2329,VALID,117,VALID,0.505469,
2010-12-18, 00:30:04,VALID,998.49,VALID,0,VALID,89.0758,VALID,0,VALID,23.2524,VALID,117,VALID,0.479297,
2010-12-18, 00:31:04,VALID,998.478,VALID,0,VALID,89.3047,VALID,0,VALID,23.2524,VALID,117,VALID,0.553906,
2010-12-18, 00:32:04,VALID,998.488,VALID,0,VALID,89.4039,VALID,0,VALID,23.2719,VALID,115,VALID,0.575391,
2010-12-18, 00:33:04,VALID,998.45,VALID,0,VALID,89.3428,VALID,0,VALID,23.2719,VALID,109,VALID,0.705469,
2010-12-18, 00:34:04,VALID,998.419,VALID,0,VALID,89.32,VALID,0,VALID,23.2915,VALID,109,VALID,0.669141,
2010-12-18, 00:35:04,VALID,998.408,VALID,0,VALID,89.3123,VALID,0,VALID,23.2932,VALID,105,VALID,0.691406,
2010-12-18, 00:36:04,VALID,998.404,VALID,0,VALID,89.236,VALID,0,VALID,23.311,VALID,100,VALID,0.514063,
2010-12-18, 00:37:04,VALID,998.394,VALID,0,VALID,89.2055,VALID,0,VALID,23.2915,VALID,100,VALID,0.491797,
2010-12-18, 00:38:04,VALID,998.343,VALID,0,VALID,89.0911,VALID,0,VALID,23.2719,VALID,100,VALID,0.608594,
2010-12-18, 00:39:04,VALID,998.36,VALID,0,VALID,89.0148,VALID,0,VALID,23.2719,VALID,100,VALID,0.573438,
2010-12-18, 00:40:04,VALID,998.372,VALID,0,VALID,89.0758,VALID,0,VALID,23.2719,VALID,100,VALID,0.505859,
2010-12-18, 00:41:04,VALID,998.341,VALID,0,VALID,89.175,VALID,0,VALID,23.2524,VALID,100,VALID,0.532812,
2010-12-18, 00:42:04,VALID,998.341,VALID,0,VALID,89.2589,VALID,0,VALID,23.2524,VALID,100,VALID,0.600391,
2010-12-18, 00:43:04,VALID,998.331,VALID,0,VALID,89.3047,VALID,0,VALID,23.2524,VALID,100,VALID,0.577344,
2010-12-18, 00:44:04,VALID,998.356,VALID,0,VALID,89.3734,VALID,0,VALID,23.2329,VALID,100,VALID,0.515625,
2010-12-18, 00:45:04,VALID,998.371,VALID,0,VALID,89.2742,VALID,0,VALID,23.2134,VALID,100,VALID,0.538672,
2010-12-18, 00:46:04,VALID,998.383,VALID,0,VALID,89.3123,VALID,0,VALID,23.1939,VALID,99,VALID,0.741406,
2010-12-18, 00:47:04,VALID,998.38,VALID,0,VALID,89.2818,VALID,0,VALID,23.1939,VALID,100,VALID,0.529688,
2010-12-18, 00:48:04,VALID,998.399,VALID,0,VALID,89.2742,VALID,0,VALID,23.1957,VALID,100,VALID,0.812891,
2010-12-18, 00:49:04,VALID,998.412,VALID,0,VALID,89.2513,VALID,0,VALID,23.1744,VALID,100,VALID,0.586719,
2010-12-18, 00:50:04,VALID,998.353,VALID,0,VALID,89.1216,VALID,0,VALID,23.1549,VALID,100,VALID,0.741016,
2010-12-18, 00:51:04,VALID,998.31,VALID,0,VALID,89.0987,VALID,0,VALID,23.1744,VALID,100,VALID,0.571094,
2010-12-18, 00:52:04,VALID,998.303,VALID,0,VALID,88.9843,VALID,0,VALID,23.1762,VALID,100,VALID,0.464453,
2010-12-18, 00:53:04,VALID,998.299,VALID,0,VALID,88.9843,VALID,0,VALID,23.1762,VALID,100,VALID,0.486328,
2010-12-18, 00:54:04,VALID,998.295,VALID,0,VALID,89.0148,VALID,0,VALID,23.1354,VALID,100,VALID,0.498828,
2010-12-18, 00:55:04,VALID,998.277,VALID,0,VALID,89.0911,VALID,0,VALID,23.1141,VALID,100,VALID,0.463281,
2010-12-18, 00:56:04,VALID,998.266,VALID,0,VALID,89.0834,VALID,0.112286,VALID,23.1141,VALID,100,VALID,0.296094,
2010-12-18, 00:57:04,VALID,998.271,VALID,0,VALID,89.2284,VALID,0,VALID,23.1141,VALID,107,VALID,0.742188,
2010-12-18, 00:58:04,VALID,998.297,VALID,0,VALID,89.3505,VALID,0,VALID,23.1336,VALID,107,VALID,0.667578,
2010-12-18, 00:59:04,VALID,998.287,VALID,0,VALID,89.442,VALID,0,VALID,23.1549,VALID,107,VALID,0.731641,
2010-12-18, 01:00:04,VALID,998.275,VALID,0,VALID,89.3505,VALID,0,VALID,23.1939,VALID,107,VALID,0.825,
2010-12-18, 01:01:04,VALID,998.284,VALID,0,VALID,89.1979,VALID,0,VALID,23.1531,VALID,107,VALID,0.895312,
2010-12-18, 01:02:04,VALID,998.312,VALID,0,VALID,89.1674,VALID,0,VALID,23.1531,VALID,107,VALID,0.708203,
2010-12-18, 01:03:04,VALID,998.266,VALID,0,VALID,89.1445,VALID,0,VALID,23.1549,VALID,107,VALID,0.555469,
2010-12-18, 01:04:04,VALID,998.283,VALID,0,VALID,89.114,VALID,0,VALID,23.1336,VALID,112,VALID,0.592578,
2010-12-18, 01:05:04,VALID,998.258,VALID,0,VALID,89.0224,VALID,0,VALID,23.1549,VALID,149,VALID,0.966797,
2010-12-18, 01:06:04,VALID,998.251,VALID,0,VALID,88.9232,VALID,0,VALID,23.1531,VALID,151,VALID,0.687891,
2010-12-18, 01:07:04,VALID,998.278,VALID,0,VALID,88.763,VALID,0.112286,VALID,23.1726,VALID,146,VALID,0.553516,
2010-12-18, 01:08:04,VALID,998.232,VALID,0,VALID,88.6791,VALID,0,VALID,23.1726,VALID,146,VALID,0.576953,
2010-12-18, 01:09:04,VALID,998.241,VALID,0,VALID,88.6409,VALID,0,VALID,23.1726,VALID,146,VALID,0.600781,
2010-12-18, 01:10:04,VALID,998.241,VALID,0,VALID,88.6943,VALID,0,VALID,23.1744,VALID,145,VALID,0.495313,
2010-12-18, 01:11:04,VALID,998.254,VALID,0,VALID,88.6333,VALID,0,VALID,23.2152,VALID,145,VALID,0.551953,
2010-12-18, 01:12:04,VALID,998.231,VALID,0,VALID,88.4807,VALID,0,VALID,23.1744,VALID,146,VALID,0.578516,
2010-12-18, 01:13:04,VALID,998.211,VALID,0,VALID,88.5112,VALID,0,VALID,23.1957,VALID,146,VALID,0.527734,
2010-12-18, 01:14:04,VALID,998.221,VALID,0,VALID,88.4502,VALID,0,VALID,23.1744,VALID,146,VALID,0.474609,
2010-12-18, 01:15:04,VALID,998.217,VALID,0,VALID,88.2823,VALID,0,VALID,23.1566,VALID,146,VALID,0.113672,
2010-12-18, 01:16:04,VALID,998.238,VALID,0,VALID,88.3357,VALID,0,VALID,23.1371,VALID,146,VALID,0.202344,
2010-12-18, 01:17:04,VALID,998.223,VALID,0,VALID,88.5417,VALID,0,VALID,23.0981,VALID,146,VALID,0.271094,
2010-12-18, 01:18:04,VALID,998.223,VALID,0,VALID,88.7249,VALID,0,VALID,23.0573,VALID,145,VALID,0.449609,
2010-12-18, 01:19:04,VALID,998.218,VALID,0,VALID,88.7401,VALID,0,VALID,23.0378,VALID,146,VALID,0.692969,
2010-12-18, 01:20:04,VALID,998.223,VALID,0,VALID,88.9843,VALID,0,VALID,23.0396,VALID,146,VALID,0.690625,
2010-12-18, 01:21:04,VALID,998.203,VALID,0,VALID,88.9385,VALID,0,VALID,23.0786,VALID,145,VALID,0.837891,
2010-12-18, 01:22:04,VALID,998.182,VALID,0,VALID,88.5189,VALID,0,VALID,23.0573,VALID,143,VALID,0.826172,
2010-12-18, 01:23:04,VALID,998.162,VALID,0,VALID,88.1374,VALID,0,VALID,23.0786,VALID,144,VALID,0.718359,
2010-12-18, 01:24:04,VALID,998.13,VALID,0,VALID,87.8856,VALID,0,VALID,23.0573,VALID,143,VALID,0.773047,
2010-12-18, 01:25:04,VALID,998.107,VALID,0,VALID,87.7406,VALID,0,VALID,23.0964,VALID,140,VALID,0.886719,
2010-12-18, 01:26:04,VALID,998.115,VALID,0,VALID,87.6338,VALID,0,VALID,23.0964,VALID,139,VALID,0.776172,
2010-12-18, 01:27:04,VALID,998.116,VALID,0,VALID,87.5346,VALID,0,VALID,23.0964,VALID,139,VALID,0.75625,
2010-12-18, 01:28:04,VALID,998.107,VALID,0,VALID,87.5651,VALID,0,VALID,23.0769,VALID,139,VALID,0.901172,
2010-12-18, 01:29:04,VALID,998.103,VALID,0,VALID,87.5728,VALID,0,VALID,23.0769,VALID,138,VALID,1.0168,
2010-12-18, 01:30:04,VALID,998.091,VALID,0,VALID,87.6414,VALID,0,VALID,23.0964,VALID,137,VALID,1.20195,
2010-12-18, 01:31:04,VALID,998.102,VALID,0,VALID,87.527,VALID,0,VALID,23.0946,VALID,137,VALID,0.907031,
2010-12-18, 01:32:04,VALID,998.07,VALID,0,VALID,87.527,VALID,0,VALID,23.1159,VALID,138,VALID,0.946484,
2010-12-18, 01:33:04,VALID,998.085,VALID,0,VALID,87.4812,VALID,0,VALID,23.1354,VALID,138,VALID,0.651563,
2010-12-18, 01:34:04,VALID,998.085,VALID,0,VALID,87.5346,VALID,0,VALID,23.0946,VALID,138,VALID,0.764453,
2010-12-18, 01:35:04,VALID,998.078,VALID,0,VALID,87.5117,VALID,0,VALID,23.1141,VALID,138,VALID,0.616797,
2010-12-18, 01:36:04,VALID,998.099,VALID,0,VALID,87.5651,VALID,0,VALID,23.0964,VALID,133,VALID,0.639063,
2010-12-18, 01:37:04,VALID,998.093,VALID,0,VALID,87.672,VALID,0,VALID,23.0556,VALID,124,VALID,0.694531,
2010-12-18, 01:38:04,VALID,998.101,VALID,0,VALID,87.7711,VALID,0,VALID,23.0964,VALID,124,VALID,0.526953,
2010-12-18, 01:39:04,VALID,998.086,VALID,0,VALID,87.8627,VALID,0,VALID,23.0769,VALID,124,VALID,0.473047,
2010-12-18, 01:40:04,VALID,998.072,VALID,0,VALID,87.8856,VALID,0,VALID,23.0769,VALID,124,VALID,0.590625,
2010-12-18, 01:41:04,VALID,998.08,VALID,0,VALID,87.8246,VALID,0,VALID,23.0964,VALID,124,VALID,0.466797,
2010-12-18, 01:42:04,VALID,998.063,VALID,0,VALID,87.7483,VALID,0,VALID,23.0751,VALID,124,VALID,0.341016,
2010-12-18, 01:43:04,VALID,998.098,VALID,0,VALID,87.7254,VALID,0,VALID,23.0946,VALID,124,VALID,0.151562,
2010-12-18, 01:44:04,VALID,998.107,VALID,0,VALID,87.5804,VALID,0,VALID,23.0556,VALID,124,VALID,0.161719,
2010-12-18, 01:45:04,VALID,998.122,VALID,0,VALID,87.8474,VALID,0,VALID,23.0769,VALID,124,VALID,0.496094,
2010-12-18, 01:46:04,VALID,998.121,VALID,0,VALID,88.0534,VALID,0,VALID,23.0361,VALID,119,VALID,0.787891,
2010-12-18, 01:47:04,VALID,998.12,VALID,0,VALID,88.2213,VALID,0,VALID,23.0769,VALID,119,VALID,0.917188,
2010-12-18, 01:48:04,VALID,998.133,VALID,0,VALID,88.1755,VALID,0,VALID,23.0556,VALID,119,VALID,0.692187,
2010-12-18, 01:49:04,VALID,998.113,VALID,0,VALID,88.2366,VALID,0,VALID,23.0769,VALID,119,VALID,0.757031,
2010-12-18, 01:50:04,VALID,998.085,VALID,0,VALID,88.3357,VALID,0,VALID,23.0769,VALID,119,VALID,0.831641,
2010-12-18, 01:51:04,VALID,998.089,VALID,0,VALID,88.5646,VALID,0.112286,VALID,23.0573,VALID,119,VALID,0.814844,
2010-12-18, 01:52:04,VALID,998.073,VALID,0,VALID,88.6791,VALID,0,VALID,23.0166,VALID,119,VALID,0.707031,
2010-12-18, 01:53:04,VALID,998.039,VALID,0,VALID,88.8164,VALID,0,VALID,23.0378,VALID,119,VALID,0.683984,
2010-12-18, 01:54:04,VALID,998.033,VALID,0,VALID,88.9537,VALID,0,VALID,22.9971,VALID,119,VALID,0.635938,
2010-12-18, 01:55:04,VALID,998.065,VALID,0,VALID,89.0834,VALID,0,VALID,23.0378,VALID,114,VALID,0.66875,
2010-12-18, 01:56:04,VALID,998.023,VALID,0,VALID,89.1063,VALID,0,VALID,23.0378,VALID,114,VALID,0.535937,
2010-12-18, 01:57:04,VALID,998.054,VALID,0,VALID,89.1674,VALID,0.112286,VALID,23.0166,VALID,114,VALID,0.434375,
2010-12-18, 01:58:04,VALID,998.029,VALID,0,VALID,89.1674,VALID,0.112286,VALID,23.0361,VALID,114,VALID,0.457422,
2010-12-18, 01:59:04,VALID,998.006,VALID,0,VALID,89.0224,VALID,0,VALID,23.0573,VALID,108,VALID,0.55,
2010-12-18, 02:00:04,VALID,998.013,VALID,0,VALID,88.9461,VALID,0.112286,VALID,23.0166,VALID,108,VALID,0.738672,
2010-12-18, 02:01:04,VALID,997.974,VALID,0,VALID,88.9461,VALID,0.112286,VALID,22.9971,VALID,113,VALID,0.815625,
2010-12-18, 02:02:04,VALID,997.991,VALID,0,VALID,88.9385,VALID,0,VALID,22.9776,VALID,112,VALID,0.989453,
2010-12-18, 02:03:04,VALID,997.961,VALID,0,VALID,88.9156,VALID,0,VALID,22.9581,VALID,122,VALID,0.747656,
2010-12-18, 02:04:04,VALID,997.991,VALID,0,VALID,88.8927,VALID,0,VALID,22.9385,VALID,121,VALID,0.679297,
2010-12-18, 02:05:04,VALID,997.947,VALID,0,VALID,88.9385,VALID,0,VALID,22.9403,VALID,121,VALID,0.522266,
2010-12-18, 02:06:04,VALID,997.942,VALID,0,VALID,89.03,VALID,0.112286,VALID,22.8995,VALID,121,VALID,0.604688,
2010-12-18, 02:07:04,VALID,997.961,VALID,0,VALID,89.0453,VALID,0,VALID,22.88,VALID,121,VALID,0.401953,
2010-12-18, 02:08:04,VALID,997.948,VALID,0,VALID,89.0987,VALID,0,VALID,22.88,VALID,121,VALID,0.409766,
2010-12-18, 02:09:04,VALID,997.948,VALID,0,VALID,89.1292,VALID,0,VALID,22.88,VALID,141,VALID,0.492969,
2010-12-18, 02:10:04,VALID,997.948,VALID,0,VALID,89.0606,VALID,0,VALID,22.8818,VALID,141,VALID,0.266797,
2010-12-18, 02:11:04,VALID,997.942,VALID,0,VALID,88.9003,VALID,0,VALID,22.9013,VALID,157,VALID,0.977734,
2010-12-18, 02:12:04,VALID,997.943,VALID,0,VALID,88.6028,VALID,0,VALID,22.9208,VALID,157,VALID,0.997656,
2010-12-18, 02:13:04,VALID,997.977,VALID,0,VALID,88.2366,VALID,0,VALID,22.9988,VALID,156,VALID,1.04258,
2010-12-18, 02:14:04,VALID,997.993,VALID,0,VALID,87.8627,VALID,0,VALID,23.0378,VALID,153,VALID,1.18516,
2010-12-18, 02:15:04,VALID,997.999,VALID,0,VALID,87.4889,VALID,0,VALID,23.0769,VALID,153,VALID,1.23477,
2010-12-18, 02:16:04,VALID,998.01,VALID,0,VALID,87.1837,VALID,0,VALID,23.1159,VALID,139,VALID,0.989453,
2010-12-18, 02:17:04,VALID,998.015,VALID,0,VALID,86.9929,VALID,0,VALID,23.1957,VALID,149,VALID,0.719531,
2010-12-18, 02:18:04,VALID,997.989,VALID,0,VALID,86.7869,VALID,0,VALID,23.1744,VALID,157,VALID,0.508203,
2010-12-18, 02:19:04,VALID,998.001,VALID,0,VALID,86.7717,VALID,0,VALID,23.1744,VALID,145,VALID,0.819922,
2010-12-18, 02:20:04,VALID,998.027,VALID,0,VALID,86.6801,VALID,0,VALID,23.2134,VALID,138,VALID,0.469531,
2010-12-18, 02:21:04,VALID,997.995,VALID,0,VALID,86.6115,VALID,0,VALID,23.2134,VALID,138,VALID,0.618359,
2010-12-18, 02:22:04,VALID,998.039,VALID,0,VALID,86.5123,VALID,0,VALID,23.2329,VALID,138,VALID,0.571875,
2010-12-18, 02:23:04,VALID,998.025,VALID,0,VALID,86.5199,VALID,0,VALID,23.2524,VALID,138,VALID,0.863672,
2010-12-18, 02:24:04,VALID,998.021,VALID,0,VALID,86.3826,VALID,0,VALID,23.2524,VALID,138,VALID,0.898047,
2010-12-18, 02:25:04,VALID,998.027,VALID,0,VALID,86.2834,VALID,0,VALID,23.2719,VALID,145,VALID,0.911328,
2010-12-18, 02:26:04,VALID,998.038,VALID,0,VALID,86.1537,VALID,0,VALID,23.2915,VALID,141,VALID,0.958984,
2010-12-18, 02:27:04,VALID,998.048,VALID,0,VALID,86.1003,VALID,0,VALID,23.3305,VALID,141,VALID,1.02227,
2010-12-18, 02:28:04,VALID,998.041,VALID,0,VALID,86.1003,VALID,0,VALID,23.3305,VALID,139,VALID,0.732813,
2010-12-18, 02:29:04,VALID,998.059,VALID,0,VALID,86.0926,VALID,0,VALID,23.3305,VALID,136,VALID,0.473437,
2010-12-18, 02:30:04,VALID,998.033,VALID,0,VALID,85.9553,VALID,0,VALID,23.311,VALID,136,VALID,0.221094,
2010-12-18, 02:31:04,VALID,998.052,VALID,0,VALID,86.2071,VALID,0,VALID,23.2719,VALID,136,VALID,0.271094,
2010-12-18, 02:32:04,VALID,998.077,VALID,0,VALID,86.7793,VALID,0,VALID,23.2524,VALID,94,VALID,0.767969,
2010-12-18, 02:33:04,VALID,998.074,VALID,0,VALID,87.0692,VALID,0,VALID,23.2134,VALID,94,VALID,1.06641,
2010-12-18, 02:34:04,VALID,998.047,VALID,0,VALID,87.26,VALID,0,VALID,23.2152,VALID,101,VALID,0.906641,
2010-12-18, 02:35:04,VALID,998.051,VALID,0,VALID,87.3439,VALID,0,VALID,23.2134,VALID,101,VALID,0.854688,
2010-12-18, 02:36:04,VALID,998.028,VALID,0,VALID,87.3134,VALID,0,VALID,23.2134,VALID,101,VALID,0.623047,
2010-12-18, 02:37:04,VALID,998.028,VALID,0,VALID,87.4583,VALID,0,VALID,23.1744,VALID,101,VALID,0.382422,
2010-12-18, 02:38:04,VALID,997.979,VALID,0,VALID,87.5041,VALID,0,VALID,23.1744,VALID,101,VALID,0.352344,
2010-12-18, 02:39:04,VALID,997.979,VALID,0,VALID,87.5423,VALID,0,VALID,23.1744,VALID,101,VALID,0.357031,
2010-12-18, 02:40:04,VALID,997.953,VALID,0,VALID,87.5041,VALID,0,VALID,23.1744,VALID,101,VALID,0.478906,
2010-12-18, 02:41:04,VALID,997.901,VALID,0,VALID,87.4049,VALID,0,VALID,23.1939,VALID,101,VALID,0.328125,
2010-12-18, 02:42:04,VALID,997.927,VALID,0,VALID,87.321,VALID,0,VALID,23.2134,VALID,101,VALID,0.411328,
2010-12-18, 02:43:04,VALID,997.913,VALID,0,VALID,87.2523,VALID,0,VALID,23.2329,VALID,101,VALID,0.385156,
2010-12-18, 02:44:04,VALID,997.864,VALID,0,VALID,87.0769,VALID,0,VALID,23.2329,VALID,101,VALID,0.192188,
2010-12-18, 02:45:04,VALID,997.866,VALID,0,VALID,87.0921,VALID,0,VALID,23.2329,VALID,101,VALID,0.148438,
2010-12-18, 02:46:04,VALID,997.841,VALID,0,VALID,87.1532,VALID,0,VALID,23.2329,VALID,101,VALID,0.458203,
2010-12-18, 02:47:04,VALID,997.826,VALID,0,VALID,87.1226,VALID,0,VALID,23.2134,VALID,102,VALID,0.312891,
2010-12-18, 02:48:04,VALID,997.794,VALID,0,VALID,87.0845,VALID,0,VALID,23.1921,VALID,131,VALID,0.657031,
2010-12-18, 02:49:04,VALID,997.824,VALID,0,VALID,86.909,VALID,0,VALID,23.2134,VALID,130,VALID,0.473437,
2010-12-18, 02:50:04,VALID,997.857,VALID,0,VALID,86.9014,VALID,0,VALID,23.2329,VALID,130,VALID,0.578125,
2010-12-18, 02:51:04,VALID,997.873,VALID,0,VALID,86.9777,VALID,0,VALID,23.2134,VALID,119,VALID,0.714063,
2010-12-18, 02:52:04,VALID,997.883,VALID,0,VALID,86.9853,VALID,0,VALID,23.2329,VALID,106,VALID,0.855078,
2010-12-18, 02:53:04,VALID,997.9,VALID,0,VALID,86.9319,VALID,0,VALID,23.2524,VALID,94,VALID,0.842578,
2010-12-18, 02:54:04,VALID,997.916,VALID,0,VALID,86.9014,VALID,0,VALID,23.2524,VALID,91,VALID,0.941016,
2010-12-18, 02:55:04,VALID,997.933,VALID,0,VALID,86.8861,VALID,0,VALID,23.2347,VALID,82,VALID,0.934766,
2010-12-18, 02:56:04,VALID,997.892,VALID,0,VALID,86.9319,VALID,0,VALID,23.2347,VALID,77,VALID,0.835938,
2010-12-18, 02:57:04,VALID,997.887,VALID,0,VALID,87.0311,VALID,0,VALID,23.1939,VALID,77,VALID,0.647266,
2010-12-18, 02:58:04,VALID,997.881,VALID,0,VALID,87.0006,VALID,0,VALID,23.1939,VALID,77,VALID,0.436719,
2010-12-18, 02:59:04,VALID,997.836,VALID,0,VALID,87.1303,VALID,0,VALID,23.1549,VALID,77,VALID,0.273438,
2010-12-18, 03:00:04,VALID,997.802,VALID,0,VALID,87.3134,VALID,0,VALID,23.1371,VALID,77,VALID,0.313281,
2010-12-18, 03:01:04,VALID,997.826,VALID,0,VALID,87.4583,VALID,0,VALID,23.1176,VALID,77,VALID,0.246875,
2010-12-18, 03:02:04,VALID,997.8,VALID,0,VALID,87.6414,VALID,0,VALID,23.0769,VALID,77,VALID,0.295703,
2010-12-18, 03:03:04,VALID,997.796,VALID,0,VALID,87.6872,VALID,0,VALID,23.0786,VALID,77,VALID,0.118359,
2010-12-18, 03:04:04,VALID,997.792,VALID,0,VALID,87.7559,VALID,0,VALID,23.0786,VALID,77,VALID,0.153125,
2010-12-18, 03:05:04,VALID,997.786,VALID,0,VALID,87.794,VALID,0,VALID,23.0396,VALID,77,VALID,0.0605469,
2010-12-18, 03:06:04,VALID,997.793,VALID,0,VALID,87.9085,VALID,0,VALID,22.9988,VALID,77,VALID,0.00429688,
2010-12-18, 03:07:04,VALID,997.8,VALID,0,VALID,88.0458,VALID,0,VALID,23.0006,VALID,77,VALID,0,
2010-12-18, 03:08:04,VALID,997.778,VALID,0,VALID,88.2137,VALID,0,VALID,22.9598,VALID,77,VALID,0,
2010-12-18, 03:09:04,VALID,997.776,VALID,0,VALID,88.3434,VALID,0,VALID,22.9403,VALID,77,VALID,0,
2010-12-18, 03:10:04,VALID,997.774,VALID,0,VALID,88.4273,VALID,0,VALID,22.9385,VALID,77,VALID,0,
2010-12-18, 03:11:04,VALID,997.778,VALID,0,VALID,88.4349,VALID,0,VALID,22.8995,VALID,77,VALID,0,
2010-12-18, 03:12:04,VALID,997.75,VALID,0,VALID,88.7401,VALID,0,VALID,22.8995,VALID,77,VALID,0.334375,
2010-12-18, 03:13:04,VALID,997.765,VALID,0,VALID,88.9309,VALID,0,VALID,22.9403,VALID,77,VALID,0.408203,
2010-12-18, 03:14:04,VALID,997.77,VALID,0,VALID,88.9995,VALID,0,VALID,22.9385,VALID,77,VALID,0.346875,
2010-12-18, 03:15:04,VALID,997.793,VALID,0,VALID,88.9385,VALID,0,VALID,22.9988,VALID,77,VALID,0.475781,
2010-12-18, 03:16:04,VALID,997.774,VALID,0,VALID,88.8774,VALID,0,VALID,22.9971,VALID,77,VALID,0.561719,
2010-12-18, 03:17:04,VALID,997.813,VALID,0,VALID,88.7249,VALID,0,VALID,23.0556,VALID,77,VALID,0.509766,
2010-12-18, 03:18:04,VALID,997.84,VALID,0,VALID,88.3739,VALID,0,VALID,23.0573,VALID,77,VALID,0.490234,
2010-12-18, 03:19:04,VALID,997.855,VALID,0,VALID,88.5265,VALID,0,VALID,23.0361,VALID,77,VALID,0.522266,
2010-12-18, 03:20:04,VALID,997.845,VALID,0,VALID,88.5494,VALID,0,VALID,23.0183,VALID,68,VALID,0.537109,
2010-12-18, 03:21:04,VALID,997.897,VALID,0,VALID,88.7249,VALID,0,VALID,22.9776,VALID,68,VALID,0.447266,
2010-12-18, 03:22:04,VALID,997.842,VALID,0,VALID,88.8393,VALID,0,VALID,22.9385,VALID,68,VALID,0.369922,
2010-12-18, 03:23:04,VALID,997.856,VALID,0,VALID,89.0148,VALID,0,VALID,22.8995,VALID,68,VALID,0.401563,
2010-12-18, 03:24:04,VALID,997.821,VALID,0,VALID,89.3047,VALID,0,VALID,22.8818,VALID,68,VALID,0.360547,
2010-12-18, 03:25:04,VALID,997.822,VALID,0,VALID,89.5641,VALID,0,VALID,22.841,VALID,68,VALID,0.300391,
2010-12-18, 03:26:04,VALID,997.829,VALID,0,VALID,89.6557,VALID,0,VALID,22.8215,VALID,68,VALID,0.009375,
2010-12-18, 03:27:04,VALID,997.848,VALID,0,VALID,89.8464,VALID,0.112286,VALID,22.802,VALID,68,VALID,0.230859,
2010-12-18, 03:28:04,VALID,997.805,VALID,0,VALID,90.0906,VALID,0,VALID,22.8037,VALID,68,VALID,0.189453,
2010-12-18, 03:29:04,VALID,997.807,VALID,0,VALID,90.3042,VALID,0,VALID,22.8232,VALID,68,VALID,0.357812,
2010-12-18, 03:30:04,VALID,997.822,VALID,0,VALID,90.5178,VALID,0,VALID,22.802,VALID,68,VALID,0.453125,
2010-12-18, 03:31:04,VALID,997.822,VALID,0,VALID,90.6017,VALID,0,VALID,22.8215,VALID,90,VALID,0.616406,
2010-12-18, 03:32:04,VALID,997.795,VALID,0,VALID,90.6246,VALID,0,VALID,22.8215,VALID,115,VALID,0.499609,
2010-12-18, 03:33:04,VALID,997.829,VALID,0,VALID,90.4034,VALID,0,VALID,22.8623,VALID,97,VALID,0.764063,
2010-12-18, 03:34:04,VALID,997.868,VALID,0,VALID,90.0982,VALID,0,VALID,22.88,VALID,97,VALID,0.225391,
2010-12-18, 03:35:04,VALID,997.847,VALID,0,VALID,89.7777,VALID,0,VALID,22.88,VALID,97,VALID,0.173438,
2010-12-18, 03:36:04,VALID,997.863,VALID,0,VALID,89.5412,VALID,0,VALID,22.9208,VALID,97,VALID,0.273047,
2010-12-18, 03:37:04,VALID,997.853,VALID,0,VALID,89.4191,VALID,0,VALID,22.9208,VALID,97,VALID,0.458984,
2010-12-18, 03:38:04,VALID,997.863,VALID,0,VALID,89.3123,VALID,0,VALID,22.9598,VALID,93,VALID,0.423047,
2010-12-18, 03:39:04,VALID,997.881,VALID,0,VALID,89.1674,VALID,0,VALID,22.9598,VALID,93,VALID,0.247656,
2010-12-18, 03:40:04,VALID,997.885,VALID,0,VALID,89.1216,VALID,0,VALID,22.9793,VALID,93,VALID,0.313281,
2010-12-18, 03:41:04,VALID,997.854,VALID,0,VALID,89.0758,VALID,0,VALID,22.9988,VALID,93,VALID,0.294141,
2010-12-18, 03:42:04,VALID,997.906,VALID,0,VALID,89.03,VALID,0,VALID,22.9776,VALID,93,VALID,0.235547,
2010-12-18, 03:43:04,VALID,997.912,VALID,0,VALID,89.0148,VALID,0,VALID,22.9776,VALID,93,VALID,0.179297,
2010-12-18, 03:44:04,VALID,997.925,VALID,0,VALID,89.0453,VALID,0,VALID,22.9793,VALID,93,VALID,0.0835937,